Location: Aboncourt
(47.7710°N, 5.9826°E)
Time: 03:31:35
(UTC+00:00)

Cosmos 1500 Rocket - Pass Details

Date: 05 July 2020
Orbit: 602 x 632 km, 82.5° (Epoch: 03 August)

Event Time Altitude Azimuth Distance (km) Brightness Sun altitude
Exits shadow 23:44:48 44° 154° (SSE) 864 3.8 -19.6°
Maximum altitude 23:45:59 63° 96° (E) 699 3.7 -19.6°
Drops below altitude 10° 23:50:20 10° 16° (NNE) 1,991 7.3 -19.5°
Sets 23:52:34 0° 13° (NNE) 2,896 8.5 -19.5°
